Custer, SD

4:36 PM MDT on September 21, 2017 (GMT -0600)
Custer County

Weather History for KCUT - March, 2014

Change the Weather History Date:

Monday, March 17, 2014

  Actual Average Record
Temperature  
Mean Temperature 42 °F 32 °F  
Max Temperature 54 °F 42 °F 69 °F (2012)
Min Temperature 30 °F 21 °F -7 °F (1965)
Degree Days  
Heating Degree Days 23 33  
Month to date heating degree days 553 596  
Since 1 July heating degree days 6411 6431  
Cooling Degree Days 0 0  
Month to date cooling degree days 0 0  
Year to date cooling degree days 0 0  
Moisture  
Dew Point 25 °F    
Average Humidity 63    
Maximum Humidity 96    
Minimum Humidity 30    
Precipitation  
Precipitation 0.01 in 0.03 in 0.53 in (2003)
Month to date precipitation 0.42 0.42  
Year to date precipitation 1.75 1.28  
Sea Level Pressure  
Sea Level Pressure 29.41 in    
Wind  
Wind Speed 9 mph (NNW)    
Max Wind Speed 29 mph    
Max Gust Speed 42 mph    
Visibility 8 miles    
Events Fog , Rain    
T = Trace of Precipitation, MM = Missing Value Source: NWS Daily Summary

Daily Weather History Graph

Daily Weather History Graph

Search for Another Location

Airport or City:

Trip Planner

Search our weather history database for the weather conditions in past years. The results will help you decide how hot, cold, wet, or windy it might be!

Date:

Astronomy

Mar. 17, 2014 Rise Set
Actual Time 7:02 AM MDT 7:03 PM MDT
Civil Twilight 6:34 AM MDT 7:31 PM MDT
Nautical Twilight 6:00 AM MDT 8:05 PM MDT
Astronomical Twilight 5:26 AM MDT 8:39 PM MDT
Moon 8:25 PM MDT (3/17) 7:17 AM MDT (3/17)
Length of Visible Light 12h 57m
Length of Day
12h 00m
Full, 99% of the Moon is Illuminated
Mar 17
Full
Mar 23
Last Quarter
Mar 30
New
Apr 7
First Quarter
Apr 15
Full

Hourly Weather History & Observations

Time (MDT) Temp. Windchill Dew Point Humidity Pressure Visibility Wind Dir Wind Speed Gust Speed Precip Events Conditions
12:53 AM 41.0 °F 36.4 °F 17.1 °F 38% 29.73 in 10.0 mi WSW 6.9 mph - N/A   Clear
1:53 AM 37.0 °F 32.4 °F 17.1 °F 44% 29.69 in 10.0 mi SW 5.8 mph - N/A   Clear
2:53 AM 37.0 °F 32.4 °F 16.0 °F 42% 29.66 in 10.0 mi SW 5.8 mph - N/A   Clear
3:53 AM 39.0 °F - 16.0 °F 39% 29.60 in 10.0 mi Calm Calm - N/A   Clear
4:53 AM 37.0 °F - 16.0 °F 42% 29.56 in 10.0 mi Calm Calm - N/A   Clear
5:53 AM 37.9 °F 35.5 °F 17.1 °F 43% 29.52 in 10.0 mi WSW 3.5 mph - N/A   Clear
6:53 AM 39.9 °F 34.5 °F 17.1 °F 40% 29.49 in 10.0 mi WSW 8.1 mph - N/A   Clear
7:53 AM 42.1 °F 36.1 °F 19.0 °F 40% 29.47 in 10.0 mi WSW 10.4 mph - N/A   Clear
8:53 AM 43.0 °F 38.2 °F 19.0 °F 38% 29.41 in 10.0 mi WSW 8.1 mph - N/A   Clear
9:53 AM 45.0 °F 40.6 °F 19.9 °F 37% 29.39 in 10.0 mi WSW 8.1 mph - N/A   Scattered Clouds
10:53 AM 46.0 °F 41.4 °F 19.9 °F 35% 29.37 in 10.0 mi West 9.2 mph 21.9 mph N/A   Overcast
11:53 AM 48.0 °F - 19.9 °F 33% 29.29 in 10.0 mi WSW 9.2 mph - N/A   Partly Cloudy
12:53 PM 52.0 °F - 21.0 °F 30% 29.24 in 10.0 mi West 11.5 mph 20.7 mph N/A   Scattered Clouds
1:53 PM 51.1 °F - 21.0 °F 31% 29.24 in 10.0 mi West 13.8 mph 26.5 mph N/A   Mostly Cloudy
2:53 PM 51.1 °F - 21.9 °F 32% 29.23 in 10.0 mi WNW 8.1 mph - N/A   Overcast
3:53 PM 41.0 °F 33.1 °F 28.0 °F 60% 29.28 in 7.0 mi NW 15.0 mph 41.4 mph 0.00 in Rain Light Rain
4:53 PM 46.0 °F 40.2 °F 23.0 °F 40% 29.24 in 10.0 mi West 12.7 mph 26.5 mph 0.00 in   Overcast
5:53 PM 46.0 °F 41.9 °F 23.0 °F 40% 29.24 in 10.0 mi NNW 8.1 mph - N/A   Scattered Clouds
6:53 PM 43.0 °F 41.3 °F 25.0 °F 49% 29.29 in 10.0 mi WNW 3.5 mph - N/A   Overcast
7:53 PM 41.0 °F 35.8 °F 27.0 °F 57% 29.31 in 10.0 mi NE 8.1 mph - N/A   Overcast
8:42 PM 37.0 °F 31.0 °F 28.9 °F 73% 29.39 in 10.0 mi NE 8.1 mph - N/A   Mostly Cloudy
8:53 PM 37.0 °F 29.3 °F 28.9 °F 73% 29.34 in 10.0 mi NE 11.5 mph - N/A   Mostly Cloudy
9:05 PM 37.0 °F 32.4 °F 30.0 °F 76% 29.39 in 10.0 mi NNE 5.8 mph - N/A   Mostly Cloudy
9:12 PM 37.0 °F 31.6 °F 30.0 °F 76% 29.39 in 10.0 mi Variable 6.9 mph - N/A   Mostly Cloudy
9:27 PM 36.0 °F 28.5 °F 30.9 °F 82% 29.40 in 10.0 mi NE 10.4 mph - N/A   Overcast
9:53 PM 35.1 °F 25.9 °F 30.9 °F 85% 29.38 in 10.0 mi NE 13.8 mph 19.6 mph N/A   Overcast
10:02 PM 35.1 °F 26.4 °F 30.9 °F 85% 29.41 in 10.0 mi NE 12.7 mph 18.4 mph N/A   Overcast
10:23 PM 34.0 °F 23.4 °F 32.0 °F 92% 29.41 in 8.0 mi NE 17.3 mph 21.9 mph N/A   Overcast
10:31 PM 34.0 °F 25.0 °F 32.0 °F 92% 29.41 in 1.8 mi NE 12.7 mph 23.0 mph N/A   Overcast
10:39 PM 34.0 °F 26.0 °F 33.1 °F 96% 29.41 in 1.2 mi NE 10.4 mph - N/A   Overcast
10:50 PM 33.8 °F 23.9 °F 32.0 °F 93% 29.41 in 1.0 mi NE 15.0 mph - N/A   Mist
10:53 PM 33.1 °F 22.2 °F 32.0 °F 96% 29.38 in 0.8 mi NE 17.3 mph 21.9 mph 0.00 in   Mist
11:19 PM 33.1 °F 21.9 °F 32.0 °F 96% 29.42 in 0.2 mi NE 18.4 mph 26.5 mph 0.00 in Fog Fog
11:31 PM 32.0 °F 20.5 °F 30.9 °F 96% 29.42 in 0.2 mi NE 18.4 mph 28.8 mph 0.00 in Fog , Rain Light Freezing Rain
11:50 PM 32.0 °F 20.8 °F 30.2 °F 93% 29.43 in 0.2 mi NE 17.3 mph 25.3 mph 0.00 in Fog Fog
11:53 PM 32.0 °F 21.2 °F 30.9 °F 96% 29.40 in 0.2 mi NE 16.1 mph 25.3 mph 0.00 in Fog Fog